Flag for Russia Weather past 2 weeks in Chelyabinsk, Russia

Now
52 °F

Scattered clouds.


Feels Like: 47 °F
Forecast: 41 / 54 °F
Wind: 15 mph from West

Location: Chelyabinsk-Balandino

Current Time: Sep 2, 2015 at 4:24:56 PM

Latest Report: Sep 2, 2015 at 4:00 PM


Visibility: N/A

Pressure: 29.71 "Hg

Humidity: 47%

Dew point: 32 °F

Location of ChelyabinskLocation

Historic Weather in Chelyabinsk — Graph

°F

Chelyabinsk temperature yesterday

Maximum temperature yesterday: 52 °F (at 2:30 PM)
Minimum temperature yesterday: 41 °F (at 2:00 AM)
Average temperature yesterday: 47 °F

Past Weeks' High & Low Weather Summary

 TemperatureHumidityPressure
High72 °F (Aug 28, 3:30 PM)100% (Aug 20, 8:00 PM)30.01 "Hg (Aug 20, 8:00 PM)
Low36 °F (Aug 24, 2:00 AM)32% (Aug 21, 3:30 PM)29.33 "Hg (Aug 30, 5:30 PM)
Average52 °F73%29.79 "Hg
* Reported Aug 18 3:00 PM — Sep 2 3:00 PM, Chelyabinsk, Weather by CustomWeather, © 2015

Note: Actual official high and low records may vary slightly from our data, if they occured in-between our weather recording intervals... More about our weather records

Advertising

Chelyabinsk weather history for previous 24 hours

 ConditionsComfort  
Time TempWeatherWind HumidityBarometerVisibility
3:00 PM
Wed, Sep 2
54 °FScattered clouds.10 mph47%29.71 "HgN/A
2:30 PM52 °FPartly sunny.13 mph54%29.71 "HgN/A
2:00 PM52 °FScattered clouds.15 mph47%29.71 "HgN/A
1:30 PM52 °FScattered clouds.17 mph47%29.71 "HgN/A
1:00 PM54 °FScattered clouds.15 mph47%29.71 "HgN/A
12:30 PM54 °FSprinkles. Scattered clouds.13 mph51%29.71 "HgN/A
12:00 PM52 °FSprinkles. Scattered clouds.13 mph58%29.71 "HgN/A
11:30 AM52 °FScattered clouds.13 mph58%29.71 "HgN/A
11:00 AM52 °FSprinkles. Scattered clouds.13 mph54%29.68 "HgN/A
10:30 AM54 °FScattered clouds.13 mph51%29.68 "HgN/A
10:00 AM54 °FPassing clouds.10 mph54%29.68 "HgN/A
9:00 AM50 °FPassing clouds.13 mph67%29.68 "HgN/A
8:30 AM48 °FScattered clouds.13 mph66%29.68 "HgN/A
8:00 AM46 °FPassing clouds.13 mph66%29.68 "HgN/A
7:30 AM45 °FPassing clouds.13 mph76%29.68 "HgN/A
7:00 AM45 °FPassing clouds.13 mph71%29.68 "HgN/A
6:30 AM45 °FPassing clouds.10 mph71%29.68 "HgN/A
6:00 AM45 °FClear.13 mph71%29.68 "Hg10 mi
5:30 AM45 °FClear.10 mph76%29.68 "Hg10 mi
5:00 AM45 °FClear.10 mph71%29.68 "Hg10 mi
4:30 AM43 °FClear.13 mph76%29.68 "Hg10 mi
4:00 AM45 °FClear.13 mph71%29.68 "Hg10 mi
3:30 AM43 °FClear.10 mph81%29.68 "Hg10 mi
2:30 AM45 °FClear.10 mph76%29.68 "Hg10 mi
2:00 AM45 °FClear.10 mph76%29.68 "Hg10 mi
1:30 AM43 °FClear.8 mph81%29.68 "Hg10 mi
1:00 AM45 °FClear.6 mph76%29.68 "Hg10 mi
12:30 AM46 °FClear.6 mph71%29.68 "Hg10 mi
12:00 AM45 °FClear.6 mph76%29.68 "Hg10 mi
11:30 PM
Tue, Sep 1
43 °FPassing clouds.3 mph81%29.68 "HgN/A
11:00 PM45 °FPassing clouds.8 mph76%29.68 "HgN/A
10:30 PM50 °FPassing clouds.10 mph58%29.68 "HgN/A
10:00 PM50 °FPassing clouds.10 mph58%29.68 "HgN/A
9:30 PM48 °FScattered clouds.8 mph62%29.68 "HgN/A
9:00 PM48 °FScattered clouds.8 mph62%29.68 "HgN/A
8:00 PM50 °FScattered clouds.8 mph54%29.68 "HgN/A
7:30 PM50 °FScattered clouds.8 mph54%29.68 "HgN/A
7:00 PM50 °FScattered clouds.8 mph58%29.68 "HgN/A
6:30 PM50 °FSprinkles. Scattered clouds.8 mph58%29.68 "HgN/A
6:00 PM52 °FScattered clouds.8 mph47%29.68 "HgN/A
5:30 PM52 °FScattered clouds.10 mph44%29.68 "HgN/A
5:00 PM52 °FScattered clouds.10 mph47%29.68 "HgN/A
4:30 PM52 °FScattered clouds.10 mph47%29.65 "HgN/A
4:00 PM50 °FScattered clouds.13 mph54%29.65 "HgN/A
Weather by CustomWeather, © 2015

See weather overviewHow to use our weather pages